Location: *
(50.3194°N, 7.1067°E)
Time: 13:33:40
(UTC+00:00)

ERBS - Pass Details

Date: 22 September 2019
Orbit: 417 x 426 km, 57.0° (Epoch: 21 October)

Event Time Altitude Azimuth Distance (km) Brightness Sun altitude
Rises 19:21:24 0° 300° (WNW) 2,396 7.8 -18.0°
Reaches altitude 10° 19:23:33 10° 294° (WNW) 1,526 6.4 -18.4°
Maximum altitude 19:26:49 45° 221° (SW) 595 3.0 -18.8°
Enters shadow 19:27:27 39° 187° (S) 655 3.0 -18.9°
